Time,TemperatureF,DewpointF,PressureIn,WindDirection,WindDirectionDegrees,WindSpeedMPH,WindSpeedGustMPH,Humidity,HourlyPrecipIn,Conditions,Clouds,dailyrainin,SoftwareType,DateUTC
2013-03-05 00:49:00,26.8,24.3,28.98,NE,45,4.7,4.7,90,0.00,,,0.00,WUHU21623XXSP,2013-03-05 06:49:00,
2013-03-05 00:54:00,26.8,24.3,28.98,NE,45,4.7,4.7,90,0.00,,,0.00,WUHU21623XXSP,2013-03-05 06:54:00,
2013-03-05 00:59:00,26.8,24.3,28.98,NE,45,4.7,4.7,90,0.00,,,0.00,WUHU21623XXSP,2013-03-05 06:59:00,
2013-03-05 01:04:00,26.8,24.3,28.98,NE,45,4.7,4.7,90,0.00,,,0.00,WUHU21623XXSP,2013-03-05 07:04:00,
2013-03-05 01:24:00,26.4,23.8,28.98,NE,45,4.5,4.5,90,0.00,,,0.00,WUHU21623XXSP,2013-03-05 07:24:00,
2013-03-05 01:29:00,26.4,23.9,28.98,NE,45,6.9,6.9,90,0.00,,,0.00,WUHU21623XXSP,2013-03-05 07:29:00,
2013-03-05 01:34:00,26.4,23.9,28.98,NE,45,6.7,6.9,90,0.00,,,0.00,WUHU21623XXSP,2013-03-05 07:34:00,
2013-03-05 01:39:00,26.4,23.9,28.97,NE,45,6.3,6.9,90,0.00,,,0.00,WUHU21623XXSP,2013-03-05 07:39:00,
2013-03-05 01:44:00,26.4,23.9,28.98,NE,45,6.3,6.3,90,0.00,,,0.00,WUHU21623XXSP,2013-03-05 07:44:00,
2013-03-05 01:49:00,26.4,23.9,28.98,NE,45,6.5,6.5,90,0.00,,,0.00,WUHU21623XXSP,2013-03-05 07:49:00,
2013-03-05 01:54:00,26.4,23.9,28.97,NE,45,6.9,6.9,90,0.00,,,0.00,WUHU21623XXSP,2013-03-05 07:54:00,
2013-03-05 01:59:00,26.4,23.9,28.97,NE,45,7.6,7.6,90,0.00,,,0.00,WUHU21623XXSP,2013-03-05 07:59:00,
2013-03-05 02:04:00,26.4,23.9,28.97,NE,45,7.6,7.6,90,0.00,,,0.00,WUHU21623XXSP,2013-03-05 08:04:00,
2013-03-05 02:09:00,26.4,23.9,28.96,NE,45,8.1,8.1,90,0.00,,,0.00,WUHU21623XXSP,2013-03-05 08:09:00,
2013-03-05 02:14:00,26.4,23.9,28.96,ENE,67,9.2,9.2,90,0.00,,,0.00,WUHU21623XXSP,2013-03-05 08:14:00,
2013-03-05 02:19:00,26.4,23.9,28.96,ENE,67,9.2,9.2,90,0.00,,,0.00,WUHU21623XXSP,2013-03-05 08:19:00,
2013-03-05 02:24:00,26.4,23.9,28.96,ENE,67,9.2,9.2,90,0.00,,,0.00,WUHU21623XXSP,2013-03-05 08:24:00,
2013-03-05 02:29:00,26.4,23.9,28.96,ENE,67,9.2,9.2,90,0.00,,,0.00,WUHU21623XXSP,2013-03-05 08:29:00,
2013-03-05 02:34:00,26.4,23.9,28.96,NE,45,6.7,9.2,90,0.00,,,0.00,WUHU21623XXSP,2013-03-05 08:34:00,
2013-03-05 02:39:00,26.4,23.9,28.96,NE,45,5.8,6.7,90,0.00,,,0.00,WUHU21623XXSP,2013-03-05 08:39:00,
2013-03-05 02:44:00,26.4,23.9,28.95,NE,45,4.0,6.7,90,0.00,,,0.00,WUHU21623XXSP,2013-03-05 08:44:00,
2013-03-05 02:49:00,26.4,23.9,28.95,NE,45,4.5,4.7,90,0.00,,,0.00,WUHU21623XXSP,2013-03-05 08:49:00,
2013-03-05 02:54:00,26.4,23.9,28.95,NE,45,4.5,4.7,90,0.00,,,0.00,WUHU21623XXSP,2013-03-05 08:54:00,
2013-03-05 02:59:00,26.4,23.9,28.95,NE,45,4.5,4.5,90,0.00,,,0.00,WUHU21623XXSP,2013-03-05 08:59:00,
2013-03-05 03:04:00,26.2,23.7,28.95,NE,45,3.6,4.5,90,0.00,,,0.00,WUHU21623XXSP,2013-03-05 09:04:00,
2013-03-05 03:09:00,26.2,23.7,28.95,NE,45,4.7,5.4,90,0.00,,,0.00,WUHU21623XXSP,2013-03-05 09:09:00,
2013-03-05 03:14:00,26.2,23.7,28.95,NE,45,4.7,5.4,90,0.00,,,0.00,WUHU21623XXSP,2013-03-05 09:14:00,
2013-03-05 03:20:00,26.2,24.0,28.95,NE,45,7.8,7.8,91,0.00,,,0.00,WUHU21623XXSP,2013-03-05 09:20:00,
2013-03-05 03:25:00,26.2,23.7,28.94,NE,45,8.3,8.3,91,0.00,,,0.00,WUHU21623XXSP,2013-03-05 09:25:00,
2013-03-05 03:30:00,26.2,24.0,28.95,NE,45,6.0,8.3,91,0.00,,,0.00,WUHU21623XXSP,2013-03-05 09:30:00,
2013-03-05 03:35:00,26.1,23.8,28.94,NE,45,7.6,8.3,91,0.00,,,0.00,WUHU21623XXSP,2013-03-05 09:35:00,
2013-03-05 03:40:00,25.9,23.8,28.94,NE,45,6.3,7.6,91,0.00,,,0.00,WUHU21623XXSP,2013-03-05 09:40:00,
2013-03-05 03:45:00,25.9,23.6,28.94,NE,45,6.5,6.5,91,0.00,,,0.00,WUHU21623XXSP,2013-03-05 09:45:00,
2013-03-05 03:50:00,25.9,23.6,28.94,NE,45,4.9,6.5,91,0.00,,,0.00,WUHU21623XXSP,2013-03-05 09:50:00,
2013-03-05 03:55:00,25.9,23.6,28.94,NE,45,4.9,6.5,91,0.00,,,0.00,WUHU21623XXSP,2013-03-05 09:55:00,
2013-03-05 04:00:00,25.9,23.6,28.95,NE,45,2.9,4.9,91,0.00,,,0.00,WUHU21623XXSP,2013-03-05 10:00:00,
2013-03-05 04:05:00,25.9,23.6,28.95,NE,45,2.9,2.9,91,0.00,,,0.00,WUHU21623XXSP,2013-03-05 10:05:00,
2013-03-05 04:10:00,25.9,23.6,28.94,NE,45,2.9,2.9,91,0.00,,,0.00,WUHU21623XXSP,2013-03-05 10:10:00,
2013-03-05 04:15:00,25.9,23.6,28.95,NE,45,2.9,2.9,91,0.00,,,0.00,WUHU21623XXSP,2013-03-05 10:15:00,
2013-03-05 04:20:00,25.9,23.6,28.96,NE,45,2.9,2.9,91,0.00,,,0.00,WUHU21623XXSP,2013-03-05 10:20:00,
2013-03-05 04:25:00,25.9,23.6,28.96,NE,45,2.9,2.9,91,0.00,,,0.00,WUHU21623XXSP,2013-03-05 10:25:00,
2013-03-05 05:47:00,25.5,23.3,28.97,NNE,22,1.3,1.3,91,0.00,,,0.00,WUHU21623XXSP,2013-03-05 11:47:00,
2013-03-05 05:52:00,25.5,23.3,28.96,NNE,22,1.3,1.3,91,0.00,,,0.00,WUHU21623XXSP,2013-03-05 11:52:00,
2013-03-05 05:57:00,25.5,23.3,28.96,NNE,22,1.3,1.3,91,0.00,,,0.00,WUHU21623XXSP,2013-03-05 11:57:00,
2013-03-05 06:02:00,25.5,23.3,28.96,NNE,22,1.3,1.3,91,0.00,,,0.00,WUHU21623XXSP,2013-03-05 12:02:00,
2013-03-05 06:07:00,25.5,23.3,28.96,NNE,22,2.2,2.2,91,0.00,,,0.00,WUHU21623XXSP,2013-03-05 12:07:00,
2013-03-05 06:12:00,25.5,23.3,28.96,NNE,22,2.2,2.2,91,0.00,,,0.00,WUHU21623XXSP,2013-03-05 12:12:00,
2013-03-05 06:17:00,25.5,23.3,28.96,NNE,22,2.2,2.2,91,0.00,,,0.00,WUHU21623XXSP,2013-03-05 12:17:00,
2013-03-05 06:22:00,25.5,23.3,28.96,NNE,22,2.2,2.2,91,0.00,,,0.00,WUHU21623XXSP,2013-03-05 12:22:00,
2013-03-05 06:27:00,25.5,23.3,28.96,NNE,22,2.2,2.2,91,0.00,,,0.00,WUHU21623XXSP,2013-03-05 12:27:00,
2013-03-05 06:32:00,25.5,23.3,28.96,NNE,22,2.2,2.2,91,0.00,,,0.00,WUHU21623XXSP,2013-03-05 12:32:00,
2013-03-05 07:50:00,26.2,24.0,28.96,NNE,22,0.0,0.0,91,0.00,,,0.00,WUHU21623XXSP,2013-03-05 13:50:00,
2013-03-05 07:55:00,26.2,24.0,28.96,NNE,22,0.0,0.0,91,0.00,,,0.00,WUHU21623XXSP,2013-03-05 13:55:00,
2013-03-05 08:00:00,26.4,24.2,28.96,NNE,22,0.0,0.0,91,0.00,,,0.00,WUHU21623XXSP,2013-03-05 14:00:00,
2013-03-05 08:05:00,26.4,24.2,28.95,NNE,22,2.0,2.0,91,0.00,,,0.00,WUHU21623XXSP,2013-03-05 14:05:00,
2013-03-05 08:10:00,26.4,24.2,28.95,NNE,22,0.9,2.0,91,0.00,,,0.00,WUHU21623XXSP,2013-03-05 14:10:00,
2013-03-05 08:15:00,26.4,24.2,28.95,NNE,22,1.6,1.8,91,0.00,,,0.00,WUHU21623XXSP,2013-03-05 14:15:00,
2013-03-05 08:20:00,26.4,24.3,28.96,North,0,1.6,2.0,91,0.00,,,0.00,WUHU21623XXSP,2013-03-05 14:20:00,
2013-03-05 08:25:00,26.8,24.5,28.95,NNE,22,1.6,2.0,91,0.00,,,0.00,WUHU21623XXSP,2013-03-05 14:25:00,
2013-03-05 08:30:00,26.8,24.5,28.95,NNE,22,0.0,1.6,91,0.00,,,0.00,WUHU21623XXSP,2013-03-05 14:30:00,
2013-03-05 08:35:00,26.8,24.5,28.95,NNE,22,1.8,1.8,91,0.00,,,0.00,WUHU21623XXSP,2013-03-05 14:35:00,
2013-03-05 08:40:00,27.0,24.7,28.95,NNE,22,0.0,1.8,91,0.00,,,0.00,WUHU21623XXSP,2013-03-05 14:40:00,
2013-03-05 08:45:00,27.0,24.7,28.95,NNE,22,0.0,1.6,91,0.00,,,0.00,WUHU21623XXSP,2013-03-05 14:45:00,
2013-03-05 08:50:00,27.3,24.8,28.95,NNE,22,2.2,2.2,90,0.00,,,0.00,WUHU21623XXSP,2013-03-05 14:50:00,
2013-03-05 08:55:00,28.0,25.8,28.95,North,0,1.6,2.2,91,0.00,,,0.00,WUHU21623XXSP,2013-03-05 14:55:00,
2013-03-05 09:00:00,28.2,26.0,28.95,North,0,1.8,1.8,91,0.00,,,0.00,WUHU21623XXSP,2013-03-05 15:00:00,
2013-03-05 09:05:00,28.6,26.1,28.95,North,0,2.0,2.0,90,0.00,,,0.00,WUHU21623XXSP,2013-03-05 15:05:00,
2013-03-05 09:10:00,29.1,26.2,28.95,North,0,2.2,2.2,90,0.00,,,0.00,WUHU21623XXSP,2013-03-05 15:10:00,
2013-03-05 09:15:00,29.3,26.8,28.95,North,0,2.2,2.5,90,0.00,,,0.00,WUHU21623XXSP,2013-03-05 15:15:00,
2013-03-05 09:20:00,29.7,26.9,28.95,North,0,2.2,2.5,89,0.00,,,0.00,WUHU21623XXSP,2013-03-05 15:20:00,
2013-03-05 09:25:00,29.7,26.9,28.95,North,0,2.2,2.2,89,0.00,,,0.00,WUHU21623XXSP,2013-03-05 15:25:00,
2013-03-05 09:30:00,29.7,26.9,28.95,North,0,2.2,2.2,89,0.00,,,0.00,WUHU21623XXSP,2013-03-05 15:30:00,
2013-03-05 09:35:00,29.7,26.9,28.95,North,0,2.2,2.2,89,0.00,,,0.00,WUHU21623XXSP,2013-03-05 15:35:00,
2013-03-05 11:35:00,34.5,28.6,28.96,WNW,292,7.2,7.2,79,0.00,,,0.00,WUHU21623XXSP,2013-03-05 17:35:00,
2013-03-05 11:40:00,34.7,28.6,28.96,WNW,292,7.2,7.2,79,0.00,,,0.00,WUHU21623XXSP,2013-03-05 17:40:00,
2013-03-05 11:45:00,34.9,29.0,28.96,WNW,292,7.2,7.2,79,0.00,,,0.00,WUHU21623XXSP,2013-03-05 17:45:00,
2013-03-05 11:50:00,35.2,29.3,28.97,WNW,292,7.6,7.6,78,0.00,,,0.00,WUHU21623XXSP,2013-03-05 17:50:00,
2013-03-05 11:55:00,34.9,29.0,28.97,WNW,292,7.6,7.6,77,0.00,,,0.00,WUHU21623XXSP,2013-03-05 17:55:00,
2013-03-05 12:00:00,34.9,28.3,28.97,WNW,292,7.6,7.6,77,0.00,,,0.00,WUHU21623XXSP,2013-03-05 18:00:00,
2013-03-05 12:05:00,34.9,28.3,28.96,WNW,292,7.6,7.6,77,0.00,,,0.00,WUHU21623XXSP,2013-03-05 18:05:00,
2013-03-05 12:10:00,34.9,28.3,28.97,NW,315,9.2,9.2,77,0.00,,,0.00,WUHU21623XXSP,2013-03-05 18:10:00,
2013-03-05 12:15:00,34.9,28.3,28.97,NW,315,9.2,9.2,77,0.00,,,0.00,WUHU21623XXSP,2013-03-05 18:15:00,
2013-03-05 12:20:00,34.9,28.3,28.96,NW,315,9.2,9.2,77,0.00,,,0.00,WUHU21623XXSP,2013-03-05 18:20:00,
2013-03-05 12:25:00,34.9,28.3,28.96,NW,315,9.2,9.2,77,0.00,,,0.00,WUHU21623XXSP,2013-03-05 18:25:00,
2013-03-05 12:30:00,34.9,28.0,28.96,NW,315,9.2,9.2,76,0.00,,,0.00,WUHU21623XXSP,2013-03-05 18:30:00,
2013-03-05 12:35:00,34.9,28.0,28.96,NW,315,9.2,9.2,75,0.00,,,0.00,WUHU21623XXSP,2013-03-05 18:35:00,
2013-03-05 12:40:00,34.9,27.7,28.96,NW,315,9.2,9.2,75,0.00,,,0.00,WUHU21623XXSP,2013-03-05 18:40:00,
2013-03-05 12:45:00,34.9,27.4,28.96,NW,315,8.7,9.2,74,0.00,,,0.00,WUHU21623XXSP,2013-03-05 18:45:00,
2013-03-05 12:50:00,36.1,28.9,28.96,NNW,337,9.8,9.8,75,0.00,,,0.00,WUHU21623XXSP,2013-03-05 18:50:00,
2013-03-05 12:55:00,36.1,28.6,28.96,NW,315,11.0,11.0,74,0.00,,,0.00,WUHU21623XXSP,2013-03-05 18:55:00,
2013-03-05 13:00:00,36.1,28.6,28.96,NNW,337,8.7,11.0,74,0.00,,,0.00,WUHU21623XXSP,2013-03-05 19:00:00,
2013-03-05 13:05:00,35.4,27.9,28.96,NNW,337,9.2,10.7,74,0.00,,,0.00,WUHU21623XXSP,2013-03-05 19:05:00,
2013-03-05 13:10:00,35.2,27.7,28.96,NW,315,10.7,10.7,74,0.00,,,0.00,WUHU21623XXSP,2013-03-05 19:10:00,
2013-03-05 13:15:00,35.2,28.0,28.96,WNW,292,11.4,11.4,75,0.00,,,0.00,WUHU21623XXSP,2013-03-05 19:15:00,
2013-03-05 13:20:00,35.2,28.0,28.96,NNW,337,11.9,12.1,75,0.00,,,0.00,WUHU21623XXSP,2013-03-05 19:20:00,
2013-03-05 13:25:00,35.2,28.0,28.96,NW,315,9.6,12.1,75,0.00,,,0.00,WUHU21623XXSP,2013-03-05 19:25:00,
2013-03-05 13:30:00,35.2,28.0,28.97,NNW,337,11.9,11.9,75,0.00,,,0.00,WUHU21623XXSP,2013-03-05 19:30:00,
2013-03-05 13:35:00,35.4,28.2,28.97,NW,315,10.5,13.0,75,0.00,,,0.00,WUHU21623XXSP,2013-03-05 19:35:00,
2013-03-05 13:40:00,35.4,28.2,28.97,NW,315,9.2,13.0,75,0.00,,,0.00,WUHU21623XXSP,2013-03-05 19:40:00,
2013-03-05 13:45:00,35.4,27.9,28.97,NW,315,8.9,9.8,74,0.00,,,0.00,WUHU21623XXSP,2013-03-05 19:45:00,
2013-03-05 13:50:00,35.4,27.9,28.97,NW,315,11.9,11.9,74,0.00,,,0.00,WUHU21623XXSP,2013-03-05 19:50:00,
2013-03-05 13:55:00,36.0,28.4,28.97,WNW,292,12.5,12.5,74,0.00,,,0.00,WUHU21623XXSP,2013-03-05 19:55:00,
2013-03-05 14:00:00,36.0,28.4,28.98,WNW,292,12.5,12.5,74,0.00,,,0.00,WUHU21623XXSP,2013-03-05 20:00:00,
2013-03-05 14:05:00,35.8,28.3,28.98,NW,315,13.4,13.4,74,0.00,,,0.00,WUHU21623XXSP,2013-03-05 20:05:00,
2013-03-05 14:10:00,36.3,28.8,28.98,WNW,292,9.2,13.4,74,0.00,,,0.00,WUHU21623XXSP,2013-03-05 20:10:00,
2013-03-05 14:15:00,36.3,28.5,28.98,NW,315,10.5,12.1,73,0.00,,,0.00,WUHU21623XXSP,2013-03-05 20:15:00,
2013-03-05 14:20:00,35.6,28.1,28.99,NW,315,10.5,13.0,72,0.00,,,0.00,WUHU21623XXSP,2013-03-05 20:20:00,
2013-03-05 14:25:00,35.4,27.6,28.99,NW,315,11.2,13.0,73,0.00,,,0.00,WUHU21623XXSP,2013-03-05 20:25:00,
2013-03-05 14:30:00,34.9,27.0,28.99,WNW,292,11.2,11.6,73,0.00,,,0.00,WUHU21623XXSP,2013-03-05 20:30:00,
2013-03-05 14:35:00,34.9,27.4,28.99,NW,315,11.4,11.6,74,0.00,,,0.00,WUHU21623XXSP,2013-03-05 20:35:00,
2013-03-05 14:40:00,34.7,27.2,28.99,NNW,337,9.8,11.9,73,0.00,,,0.00,WUHU21623XXSP,2013-03-05 20:40:00,
2013-03-05 14:45:00,34.3,26.5,28.99,NNW,337,11.0,11.9,73,0.00,,,0.00,WUHU21623XXSP,2013-03-05 20:45:00,
2013-03-05 14:50:00,34.3,27.1,28.99,NNW,337,11.0,11.0,75,0.00,,,0.00,WUHU21623XXSP,2013-03-05 20:50:00,
2013-03-05 14:55:00,34.5,27.3,28.99,NW,315,11.4,14.3,75,0.00,,,0.00,WUHU21623XXSP,2013-03-05 20:55:00,
2013-03-05 15:00:00,34.9,27.4,28.99,NW,315,16.3,16.3,74,0.00,,,0.00,WUHU21623XXSP,2013-03-05 21:00:00,
2013-03-05 15:05:00,34.5,27.2,28.99,WNW,292,13.2,16.3,74,0.00,,,0.00,WUHU21623XXSP,2013-03-05 21:05:00,
2013-03-05 15:10:00,34.2,26.6,29.00,NW,315,13.0,16.6,74,0.00,,,0.00,WUHU21623XXSP,2013-03-05 21:10:00,
2013-03-05 15:15:00,33.4,26.0,29.00,NNW,337,11.9,16.6,74,0.00,,,0.00,WUHU21623XXSP,2013-03-05 21:15:00,
2013-03-05 15:20:00,32.7,25.6,29.00,NW,315,13.0,13.0,75,0.00,,,0.00,WUHU21623XXSP,2013-03-05 21:20:00,
2013-03-05 15:25:00,32.5,25.5,29.00,NNW,337,13.6,13.6,76,0.00,,,0.00,WUHU21623XXSP,2013-03-05 21:25:00,
2013-03-05 15:30:00,32.2,25.5,29.00,NNW,337,13.0,13.6,76,0.00,,,0.00,WUHU21623XXSP,2013-03-05 21:30:00,
2013-03-05 15:35:00,31.6,24.9,29.01,NNW,337,14.3,14.3,76,0.00,,,0.00,WUHU21623XXSP,2013-03-05 21:35:00,
2013-03-05 15:40:00,31.3,24.9,29.01,NW,315,15.2,15.2,77,0.00,,,0.00,WUHU21623XXSP,2013-03-05 21:40:00,
2013-03-05 15:45:00,31.3,25.2,29.01,WNW,292,13.6,17.2,78,0.00,,,0.00,WUHU21623XXSP,2013-03-05 21:45:00,
2013-03-05 15:50:00,31.1,25.4,29.02,NW,315,13.4,17.2,79,0.00,,,0.00,WUHU21623XXSP,2013-03-05 21:50:00,
2013-03-05 15:55:00,30.9,25.2,29.02,NNW,337,13.6,15.9,79,0.00,,,0.00,WUHU21623XXSP,2013-03-05 21:55:00,
2013-03-05 16:00:00,30.9,25.2,29.02,NW,315,12.3,13.6,79,0.00,,,0.00,WUHU21623XXSP,2013-03-05 22:00:00,
2013-03-05 16:05:00,30.6,24.8,29.03,NNW,337,12.8,13.6,79,0.00,,,0.00,WUHU21623XXSP,2013-03-05 22:05:00,
2013-03-05 16:10:00,30.2,24.7,29.03,NNW,337,11.2,12.8,79,0.00,,,0.00,WUHU21623XXSP,2013-03-05 22:10:00,
2013-03-05 16:15:00,30.0,24.3,29.03,NW,315,11.9,15.9,79,0.00,,,0.00,WUHU21623XXSP,2013-03-05 22:15:00,
2013-03-05 16:20:00,30.0,24.6,29.03,NW,315,11.9,15.9,80,0.00,,,0.00,WUHU21623XXSP,2013-03-05 22:20:00,
2013-03-05 16:25:00,30.0,24.9,29.04,NW,315,11.9,11.9,81,0.00,,,0.00,WUHU21623XXSP,2013-03-05 22:25:00,
2013-03-05 16:30:00,29.8,24.9,29.04,NW,315,11.9,11.9,81,0.00,,,0.00,WUHU21623XXSP,2013-03-05 22:30:00,
2013-03-05 16:35:00,29.5,24.3,29.04,NNW,337,13.9,15.2,80,0.00,,,0.00,WUHU21623XXSP,2013-03-05 22:35:00,
2013-03-05 16:40:00,29.5,24.1,29.04,NNW,337,10.5,15.2,80,0.00,,,0.00,WUHU21623XXSP,2013-03-05 22:40:00,
2013-03-05 16:45:00,29.1,24.0,29.05,NNW,337,13.4,13.9,81,0.00,,,0.00,WUHU21623XXSP,2013-03-05 22:45:00,
2013-03-05 16:50:00,29.1,24.0,29.05,NW,315,14.5,14.5,81,0.00,,,0.00,WUHU21623XXSP,2013-03-05 22:50:00,
2013-03-05 16:55:00,29.1,24.0,29.05,NNW,337,11.9,14.5,81,0.00,,,0.00,WUHU21623XXSP,2013-03-05 22:55:00,
2013-03-05 17:00:00,28.9,23.8,29.06,NNW,337,15.4,15.4,81,0.00,,,0.00,WUHU21623XXSP,2013-03-05 23:00:00,
2013-03-05 17:05:00,28.9,23.8,29.06,NW,315,15.7,15.7,81,0.00,,,0.00,WUHU21623XXSP,2013-03-05 23:05:00,
2013-03-05 17:10:00,28.8,23.9,29.07,NW,315,12.3,15.7,82,0.00,,,0.00,WUHU21623XXSP,2013-03-05 23:10:00,
2013-03-05 17:15:00,28.8,23.9,29.07,NW,315,16.3,19.7,82,0.00,,,0.00,WUHU21623XXSP,2013-03-05 23:15:00,
2013-03-05 17:20:00,28.6,23.8,29.07,NW,315,20.4,20.4,82,0.00,,,0.00,WUHU21623XXSP,2013-03-05 23:20:00,
2013-03-05 17:25:00,28.6,23.8,29.07,WNW,292,15.2,20.4,82,0.00,,,0.00,WUHU21623XXSP,2013-03-05 23:25:00,
2013-03-05 17:30:00,28.2,23.4,29.08,NW,315,18.3,18.3,82,0.00,,,0.00,WUHU21623XXSP,2013-03-05 23:30:00,
2013-03-05 17:35:00,28.2,23.4,29.08,NW,315,15.9,18.3,83,0.00,,,0.00,WUHU21623XXSP,2013-03-05 23:35:00,
2013-03-05 17:40:00,28.0,23.5,29.08,NW,315,14.8,15.9,83,0.00,,,0.00,WUHU21623XXSP,2013-03-05 23:40:00,
2013-03-05 17:45:00,28.0,23.5,29.09,NW,315,14.8,14.8,83,0.00,,,0.00,WUHU21623XXSP,2013-03-05 23:45:00,
2013-03-05 17:50:00,27.9,23.8,29.09,NW,315,14.8,14.8,84,0.00,,,0.00,WUHU21623XXSP,2013-03-05 23:50:00,
2013-03-05 17:55:00,27.7,23.4,29.09,NW,315,13.4,14.8,84,0.00,,,0.00,WUHU21623XXSP,2013-03-05 23:55:00,
2013-03-05 18:00:00,27.7,23.4,29.10,WNW,292,13.6,15.4,84,0.00,,,0.00,WUHU21623XXSP,2013-03-06 00:00:00,
2013-03-05 18:05:00,27.5,23.3,29.10,NW,315,16.3,16.3,84,0.00,,,0.00,WUHU21623XXSP,2013-03-06 00:05:00,
2013-03-05 18:10:00,27.3,23.3,29.10,NW,315,13.6,16.3,84,0.00,,,0.00,WUHU21623XXSP,2013-03-06 00:10:00,
2013-03-05 18:15:00,27.3,23.1,29.10,NW,315,13.6,16.3,84,0.00,,,0.00,WUHU21623XXSP,2013-03-06 00:15:00,
2013-03-05 18:20:00,27.3,23.1,29.11,NW,315,13.6,13.6,84,0.00,,,0.00,WUHU21623XXSP,2013-03-06 00:20:00,
2013-03-05 18:25:00,27.3,23.1,29.11,NW,315,13.6,13.6,84,0.00,,,0.00,WUHU21623XXSP,2013-03-06 00:25:00,
2013-03-05 18:34:00,27.1,23.2,29.12,WNW,292,12.8,12.8,85,0.00,,,0.00,WUHU21623XXSP,2013-03-06 00:34:00,
2013-03-05 18:39:00,27.1,23.2,29.12,NW,315,13.0,13.0,85,0.00,,,0.00,WUHU21623XXSP,2013-03-06 00:39:00,
2013-03-05 18:44:00,27.1,23.5,29.12,NW,315,13.0,13.0,86,0.00,,,0.00,WUHU21623XXSP,2013-03-06 00:44:00,
2013-03-05 18:49:00,27.1,23.5,29.12,NW,315,13.0,13.0,85,0.00,,,0.00,WUHU21623XXSP,2013-03-06 00:49:00,
2013-03-05 18:55:00,27.0,23.0,29.13,NW,315,18.6,18.6,85,0.00,,,0.00,WUHU21623XXSP,2013-03-06 00:55:00,
2013-03-05 19:00:00,27.0,23.0,29.13,NW,315,18.6,18.6,85,0.00,,,0.00,WUHU21623XXSP,2013-03-06 01:00:00,
2013-03-05 19:05:00,27.0,23.0,29.13,NW,315,18.6,18.6,85,0.00,,,0.00,WUHU21623XXSP,2013-03-06 01:05:00,
2013-03-05 19:10:00,26.8,22.8,29.13,NW,315,18.6,18.6,85,0.00,,,0.00,WUHU21623XXSP,2013-03-06 01:10:00,
2013-03-05 19:15:00,26.8,22.8,29.14,NW,315,16.1,18.6,85,0.00,,,0.00,WUHU21623XXSP,2013-03-06 01:15:00,
2013-03-05 19:20:00,26.8,22.8,29.14,NW,315,16.1,18.6,85,0.00,,,0.00,WUHU21623XXSP,2013-03-06 01:20:00,
2013-03-05 19:25:00,26.4,22.8,29.14,NW,315,16.1,16.1,85,0.00,,,0.00,WUHU21623XXSP,2013-03-06 01:25:00,
2013-03-05 19:30:00,26.4,22.5,29.15,NW,315,15.9,16.6,85,0.00,,,0.00,WUHU21623XXSP,2013-03-06 01:30:00,
2013-03-05 19:35:00,26.4,22.5,29.15,NW,315,18.8,18.8,85,0.00,,,0.00,WUHU21623XXSP,2013-03-06 01:35:00,
2013-03-05 19:40:00,26.4,22.5,29.15,NW,315,18.8,18.8,85,0.00,,,0.00,WUHU21623XXSP,2013-03-06 01:40:00,
2013-03-05 19:45:00,26.4,22.5,29.15,NNW,337,12.3,18.8,85,0.00,,,0.00,WUHU21623XXSP,2013-03-06 01:45:00,
2013-03-05 19:50:00,26.2,22.3,29.15,NW,315,12.8,18.8,85,0.00,,,0.00,WUHU21623XXSP,2013-03-06 01:50:00,
2013-03-05 19:55:00,26.2,22.3,29.15,NNW,337,12.3,16.8,85,0.00,,,0.00,WUHU21623XXSP,2013-03-06 01:55:00,
2013-03-05 20:00:00,26.2,22.3,29.15,WNW,292,16.6,16.6,85,0.00,,,0.00,WUHU21623XXSP,2013-03-06 02:00:00,
2013-03-05 20:05:00,26.2,22.6,29.15,NW,315,15.0,16.6,86,0.00,,,0.00,WUHU21623XXSP,2013-03-06 02:05:00,
2013-03-05 20:10:00,26.2,22.6,29.16,NNW,337,13.4,16.1,86,0.00,,,0.00,WUHU21623XXSP,2013-03-06 02:10:00,
2013-03-05 20:15:00,26.2,22.6,29.15,NW,315,11.9,16.1,86,0.00,,,0.00,WUHU21623XXSP,2013-03-06 02:15:00,
2013-03-05 20:20:00,26.1,22.6,29.16,NW,315,14.1,14.1,86,0.00,,,0.00,WUHU21623XXSP,2013-03-06 02:20:00,
2013-03-05 20:25:00,26.1,22.4,29.16,NW,315,11.0,14.5,86,0.00,,,0.00,WUHU21623XXSP,2013-03-06 02:25:00,
2013-03-05 20:30:00,26.2,22.4,29.16,NW,315,12.1,14.5,86,0.00,,,0.00,WUHU21623XXSP,2013-03-06 02:30:00,
2013-03-05 20:35:00,26.1,22.4,29.16,WNW,292,14.3,14.5,86,0.00,,,0.00,WUHU21623XXSP,2013-03-06 02:35:00,
2013-03-05 20:40:00,25.9,22.2,29.16,NW,315,15.2,15.2,86,0.00,,,0.00,WUHU21623XXSP,2013-03-06 02:40:00,
2013-03-05 20:45:00,25.9,22.2,29.17,NW,315,14.3,15.2,86,0.00,,,0.00,WUHU21623XXSP,2013-03-06 02:45:00,
2013-03-05 20:50:00,25.7,22.1,29.17,NW,315,14.8,14.8,86,0.00,,,0.00,WUHU21623XXSP,2013-03-06 02:50:00,
2013-03-05 20:55:00,25.7,22.3,29.17,NW,315,15.2,15.2,87,0.00,,,0.00,WUHU21623XXSP,2013-03-06 02:55:00,
2013-03-05 21:00:00,25.7,22.1,29.17,NW,315,14.1,15.2,86,0.00,,,0.00,WUHU21623XXSP,2013-03-06 03:00:00,
2013-03-05 21:05:00,25.5,22.2,29.18,NW,315,13.2,15.9,87,0.00,,,0.00,WUHU21623XXSP,2013-03-06 03:05:00,
2013-03-05 21:10:00,25.5,22.2,29.18,NW,315,13.2,15.9,87,0.00,,,0.00,WUHU21623XXSP,2013-03-06 03:10:00,
2013-03-05 21:15:00,25.3,22.0,29.18,NW,315,13.0,18.6,87,0.00,,,0.00,WUHU21623XXSP,2013-03-06 03:15:00,
2013-03-05 21:20:00,25.3,22.0,29.19,WNW,292,13.0,18.6,87,0.00,,,0.00,WUHU21623XXSP,2013-03-06 03:20:00,
2013-03-05 21:25:00,25.2,21.8,29.19,NW,315,14.3,15.9,87,0.00,,,0.00,WUHU21623XXSP,2013-03-06 03:25:00,
2013-03-05 21:30:00,24.6,21.4,29.19,WNW,292,15.9,15.9,86,0.00,,,0.00,WUHU21623XXSP,2013-03-06 03:30:00,
2013-03-05 21:35:00,24.4,20.8,29.19,WNW,292,13.2,15.9,86,0.00,,,0.00,WUHU21623XXSP,2013-03-06 03:35:00,
2013-03-05 21:40:00,24.1,20.5,29.20,WNW,292,12.8,13.2,86,0.00,,,0.00,WUHU21623XXSP,2013-03-06 03:40:00,
2013-03-05 21:45:00,23.9,20.3,29.20,WNW,292,13.9,13.9,86,0.00,,,0.00,WUHU21623XXSP,2013-03-06 03:45:00,
2013-03-05 21:51:00,23.7,20.4,29.20,NW,315,16.3,16.3,87,0.00,,,0.00,WUHU21623XXSP,2013-03-06 03:51:00,
2013-03-05 21:56:00,23.7,20.4,29.20,NW,315,15.0,17.7,87,0.00,,,0.00,WUHU21623XXSP,2013-03-06 03:56:00,
2013-03-05 22:01:00,23.9,20.6,29.20,NW,315,12.1,17.7,87,0.00,,,0.00,WUHU21623XXSP,2013-03-06 04:01:00,
2013-03-05 22:06:00,23.9,20.6,29.20,WNW,292,14.1,15.2,87,0.00,,,0.00,WUHU21623XXSP,2013-03-06 04:06:00,
2013-03-05 22:11:00,23.9,20.6,29.21,NW,315,11.9,14.1,87,0.00,,,0.00,WUHU21623XXSP,2013-03-06 04:11:00,
2013-03-05 22:16:00,24.1,20.8,29.21,WNW,292,9.2,13.6,87,0.00,,,0.00,WUHU21623XXSP,2013-03-06 04:16:00,
2013-03-05 22:21:00,23.7,20.1,29.21,WNW,292,12.5,13.6,86,0.00,,,0.00,WUHU21623XXSP,2013-03-06 04:21:00,
2013-03-05 22:26:00,23.4,19.8,29.21,WNW,292,10.3,13.0,86,0.00,,,0.00,WUHU21623XXSP,2013-03-06 04:26:00,
2013-03-05 22:31:00,23.0,19.4,29.21,WNW,292,10.3,12.1,86,0.00,,,0.00,WUHU21623XXSP,2013-03-06 04:31:00,
2013-03-05 22:36:00,22.3,18.9,29.21,WNW,292,10.1,11.9,86,0.00,,,0.00,WUHU21623XXSP,2013-03-06 04:36:00,
2013-03-05 22:41:00,21.7,18.1,29.22,NW,315,9.2,11.2,86,0.00,,,0.00,WUHU21623XXSP,2013-03-06 04:41:00,
2013-03-05 22:46:00,21.0,17.3,29.22,WNW,292,9.4,10.3,85,0.00,,,0.00,WUHU21623XXSP,2013-03-06 04:46:00,
2013-03-05 22:51:00,20.5,16.9,29.22,WNW,292,9.2,10.1,86,0.00,,,0.00,WUHU21623XXSP,2013-03-06 04:51:00,
2013-03-05 22:56:00,20.1,16.3,29.22,WNW,292,10.3,10.3,85,0.00,,,0.00,WUHU21623XXSP,2013-03-06 04:56:00,
2013-03-05 23:00:00,19.9,16.1,29.22,WNW,292,8.1,10.3,85,0.00,,,0.00,WUHU21623XXSP,2013-03-06 05:00:00,
2013-03-05 23:05:00,19.6,16.0,29.23,WNW,292,8.3,8.9,86,0.00,,,0.00,WUHU21623XXSP,2013-03-06 05:05:00,
2013-03-05 23:10:00,19.2,15.6,29.23,WNW,292,7.2,8.9,86,0.00,,,0.00,WUHU21623XXSP,2013-03-06 05:10:00,
2013-03-05 23:15:00,19.2,15.6,29.22,WNW,292,9.6,9.6,86,0.00,,,0.00,WUHU21623XXSP,2013-03-06 05:15:00,
2013-03-05 23:20:00,18.7,15.1,29.23,NW,315,9.2,10.3,86,0.00,,,0.00,WUHU21623XXSP,2013-03-06 05:20:00,
2013-03-05 23:25:00,18.9,15.3,29.23,NW,315,9.6,10.3,86,0.00,,,0.00,WUHU21623XXSP,2013-03-06 05:25:00,
2013-03-05 23:30:00,18.7,15.1,29.23,NW,315,9.6,9.6,86,0.00,,,0.00,WUHU21623XXSP,2013-03-06 05:30:00,
2013-03-05 23:35:00,18.7,15.1,29.22,NW,315,9.6,9.6,86,0.00,,,0.00,WUHU21623XXSP,2013-03-06 05:35:00,
2013-03-05 23:40:00,18.5,14.9,29.23,NW,315,8.3,9.6,86,0.00,,,0.00,WUHU21623XXSP,2013-03-06 05:40:00,
2013-03-05 23:45:00,18.5,15.2,29.22,NW,315,10.5,10.5,87,0.00,,,0.00,WUHU21623XXSP,2013-03-06 05:45:00,
2013-03-05 23:50:00,18.5,15.2,29.21,NW,315,9.6,10.5,87,0.00,,,0.00,WUHU21623XXSP,2013-03-06 05:50:00,
2013-03-05 23:55:00,18.5,15.2,29.22,WNW,292,8.9,9.6,87,0.00,,,0.00,WUHU21623XXSP,2013-03-06 05:55:00,